EWG31T EDDK-EGKK

Flight info

Callsign EWG31T
Flight time 1h 7m
Altitude 32000
Route NVO3F/13L Y868 NAVAK DCT DENUT L610 TEBRA
Aircraft A320/M-SDE3FGHIRWY/LB1

Departure

Time 2026-04-22 07:47
Airport Cologne Bonn Airport (EDDK)

Arrival

Time 2026-04-22 08:54
Airport London Gatwick Airport (EGKK)
Time Latitude Longitude Altitude Speed Heading
2026-04-22 07:30 50.87834 7.12452 232 ft 0 kts 288°
2026-04-22 07:37 50.87826 7.12488 231 ft 4 kts 291°
2026-04-22 07:38 50.87815 7.12526 232 ft 4 kts 302°
2026-04-22 07:38 50.87798 7.12557 234 ft 4 kts 342°
2026-04-22 07:38 50.87787 7.12560 233 ft 0 kts 18°
2026-04-22 07:42 50.87793 7.12562 234 ft 4 kts 18°
2026-04-22 07:42 50.87817 7.12575 230 ft 3 kts 18°
2026-04-22 07:43 50.87835 7.12584 230 ft 4 kts 18°
2026-04-22 07:43 50.87876 7.12605 230 ft 9 kts 18°
2026-04-22 07:43 50.87935 7.12636 233 ft 7 kts 23°
2026-04-22 07:43 50.87954 7.12653 230 ft 1 kts 35°
2026-04-22 07:44 50.87956 7.12655 230 ft 0 kts 36°
2026-04-22 07:44 50.87958 7.12658 231 ft 3 kts 37°
2026-04-22 07:44 50.87970 7.12677 232 ft 2 kts 47°
2026-04-22 07:44 50.87992 7.12731 233 ft 9 kts 65°
2026-04-22 07:45 50.88005 7.12813 241 ft 7 kts 81°
2026-04-22 07:45 50.88007 7.12882 237 ft 7 kts 92°
2026-04-22 07:45 50.87992 7.12972 239 ft 10 kts 114°
2026-04-22 07:45 50.87953 7.13045 241 ft 7 kts 138°
2026-04-22 07:46 50.87922 7.13088 241 ft 5 kts 138°
2026-04-22 07:46 50.87876 7.13152 242 ft 28 kts 138°
2026-04-22 07:46 50.87539 7.13651 245 ft 101 kts 136°
2026-04-22 07:46 50.86882 7.14609 256 ft 154 kts 137°
2026-04-22 07:47 50.86040 7.15886 625 ft 173 kts 134°
2026-04-22 07:47 50.85161 7.17188 1475 ft 173 kts 136°
2026-04-22 07:47 50.84243 7.18454 2189 ft 180 kts 136°
2026-04-22 07:47 50.83263 7.19821 2580 ft 202 kts 136°
2026-04-22 07:48 50.82152 7.21369 3275 ft 215 kts 137°
2026-04-22 07:48 50.81028 7.22917 4127 ft 219 kts 136°
2026-04-22 07:48 50.79765 7.24305 4966 ft 225 kts 159°
2026-04-22 07:48 50.78168 7.24402 5791 ft 238 kts 189°
2026-04-22 07:49 50.76639 7.23287 6640 ft 250 kts 217°
2026-04-22 07:49 50.75591 7.21060 7379 ft 260 kts 247°
2026-04-22 07:49 50.75160 7.18269 8201 ft 265 kts 266°
2026-04-22 07:49 50.75260 7.15285 8709 ft 284 kts 283°
2026-04-22 07:50 50.75714 7.12155 9276 ft 299 kts 284°
2026-04-22 07:50 50.76178 7.08918 10104 ft 305 kts 284°
2026-04-22 07:50 50.76635 7.05649 10720 ft 318 kts 284°
2026-04-22 07:50 50.77123 7.02103 11007 ft 342 kts 283°
2026-04-22 07:51 50.77633 6.98353 11541 ft 354 kts 283°
2026-04-22 07:51 50.78149 6.94512 12292 ft 359 kts 283°
2026-04-22 07:51 50.78670 6.90623 13080 ft 363 kts 283°
2026-04-22 07:51 50.79197 6.86695 13847 ft 367 kts 283°
2026-04-22 07:52 50.79727 6.82733 14554 ft 371 kts 284°
2026-04-22 07:52 50.80262 6.78727 15243 ft 374 kts 284°
2026-04-22 07:52 50.80794 6.74736 15918 ft 378 kts 284°
2026-04-22 07:52 50.81336 6.70659 16602 ft 381 kts 284°
2026-04-22 07:53 50.81884 6.66541 17279 ft 384 kts 284°
2026-04-22 07:53 50.82281 6.62338 17929 ft 390 kts 275°
2026-04-22 07:53 50.82353 6.58021 18577 ft 394 kts 272°
2026-04-22 07:53 50.82407 6.53669 19146 ft 398 kts 272°
2026-04-22 07:54 50.82459 6.49286 19703 ft 401 kts 272°
2026-04-22 07:54 50.82507 6.44850 20181 ft 405 kts 272°
2026-04-22 07:54 50.82556 6.40390 20324 ft 406 kts 272°
2026-04-22 07:54 50.82604 6.36119 20358 ft 406 kts 272°
2026-04-22 07:55 50.82657 6.31508 20851 ft 410 kts 272°
2026-04-22 07:55 50.82710 6.26980 21421 ft 413 kts 272°
2026-04-22 07:55 50.82763 6.22423 21958 ft 416 kts 272°
2026-04-22 07:55 50.82812 6.17830 22492 ft 419 kts 272°
2026-04-22 07:56 50.82857 6.13198 23005 ft 423 kts 272°
2026-04-22 07:56 50.82896 6.08535 23508 ft 426 kts 272°
2026-04-22 07:56 50.82933 6.03828 23989 ft 429 kts 272°
2026-04-22 07:56 50.82950 5.99149 24403 ft 432 kts 271°
2026-04-22 07:57 50.82953 5.94381 24838 ft 434 kts 275°
2026-04-22 07:57 50.83287 5.89654 25261 ft 433 kts 283°
2026-04-22 07:57 50.84037 5.85044 25697 ft 433 kts 289°
2026-04-22 07:57 50.84896 5.80472 26126 ft 435 kts 289°
2026-04-22 07:58 50.85777 5.75874 26549 ft 436 kts 289°
2026-04-22 07:58 50.86662 5.71273 26964 ft 438 kts 289°
2026-04-22 07:58 50.87547 5.66653 27369 ft 440 kts 289°
2026-04-22 07:58 50.88431 5.62005 27792 ft 442 kts 289°
2026-04-22 07:59 50.89317 5.57329 28202 ft 443 kts 289°
2026-04-22 07:59 50.90188 5.52716 28616 ft 445 kts 289°
2026-04-22 07:59 50.91073 5.48003 29017 ft 446 kts 289°
2026-04-22 07:59 50.91957 5.43283 29407 ft 448 kts 289°
2026-04-22 08:00 50.92845 5.38539 29789 ft 449 kts 289°
2026-04-22 08:00 50.93732 5.33785 30163 ft 451 kts 288°
2026-04-22 08:00 50.94619 5.29006 30502 ft 452 kts 288°
2026-04-22 08:00 50.95506 5.24219 30795 ft 454 kts 288°
2026-04-22 08:01 50.96397 5.19403 31101 ft 455 kts 288°
2026-04-22 08:01 50.97275 5.14642 31402 ft 456 kts 288°
2026-04-22 08:01 50.98164 5.09811 31773 ft 455 kts 288°
2026-04-22 08:01 50.99044 5.05001 32189 ft 454 kts 288°
2026-04-22 08:02 50.99922 5.00204 32330 ft 451 kts 288°
2026-04-22 08:02 51.00783 4.95487 32360 ft 439 kts 288°
2026-04-22 08:02 51.02446 4.86325 32354 ft 432 kts 288°
2026-04-22 08:03 51.04110 4.77167 32351 ft 431 kts 288°
2026-04-22 08:03 51.05765 4.68003 32357 ft 431 kts 288°
2026-04-22 08:04 51.07401 4.58836 32362 ft 431 kts 288°
2026-04-22 08:04 51.09029 4.49680 32353 ft 430 kts 288°
2026-04-22 08:05 51.10648 4.40582 32345 ft 430 kts 288°
2026-04-22 08:05 51.12268 4.31429 32344 ft 429 kts 288°
2026-04-22 08:06 51.13879 4.22276 32340 ft 429 kts 287°
2026-04-22 08:06 51.15476 4.13119 32337 ft 429 kts 287°
2026-04-22 08:07 51.17053 4.04021 32331 ft 429 kts 287°
2026-04-22 08:07 51.18639 3.94860 32327 ft 429 kts 287°
2026-04-22 08:08 51.20220 3.85703 32322 ft 428 kts 287°
2026-04-22 08:08 51.21788 3.76546 32324 ft 428 kts 287°
2026-04-22 08:09 51.23332 3.67438 32324 ft 428 kts 287°
2026-04-22 08:09 51.24744 3.58199 32335 ft 429 kts 284°
2026-04-22 08:10 51.25927 3.48870 32331 ft 429 kts 283°
2026-04-22 08:10 51.27090 3.39546 32337 ft 428 kts 283°
2026-04-22 08:11 51.28288 3.30235 32343 ft 428 kts 283°
2026-04-22 08:11 51.29481 3.21005 32346 ft 427 kts 283°
2026-04-22 08:12 51.30671 3.11712 32356 ft 427 kts 283°
2026-04-22 08:12 51.31845 3.02425 32352 ft 426 kts 283°
2026-04-22 08:13 51.33006 2.93150 32352 ft 425 kts 283°
2026-04-22 08:13 51.34170 2.83756 32358 ft 440 kts 283°
2026-04-22 08:14 51.35356 2.74130 32352 ft 442 kts 283°
2026-04-22 08:14 51.36549 2.64495 32353 ft 441 kts 283°
2026-04-22 08:15 51.37743 2.54872 32352 ft 440 kts 283°
2026-04-22 08:15 51.38914 2.45334 32351 ft 439 kts 283°
2026-04-22 08:16 51.40066 2.35740 32351 ft 438 kts 283°
2026-04-22 08:16 51.41211 2.26164 32357 ft 437 kts 283°
2026-04-22 08:17 51.42363 2.16611 32359 ft 436 kts 283°
2026-04-22 08:17 51.43522 2.07146 32355 ft 435 kts 283°
2026-04-22 08:18 51.44682 1.97643 32358 ft 434 kts 283°
2026-04-22 08:18 51.45800 1.88161 32362 ft 432 kts 283°
2026-04-22 08:19 51.46896 1.78711 32366 ft 430 kts 283°
2026-04-22 08:19 51.47980 1.69296 32371 ft 428 kts 284°
2026-04-22 08:20 51.48372 1.59857 32370 ft 435 kts 264°
2026-04-22 08:20 51.46475 1.50547 32366 ft 440 kts 255°
2026-04-22 08:21 51.44309 1.41383 32359 ft 441 kts 250°
2026-04-22 08:21 51.42670 1.37178 32355 ft 451 kts 234°
2026-04-22 08:21 51.40331 1.33747 32344 ft 460 kts 222°
2026-04-22 08:22 51.35227 1.27676 32329 ft 460 kts 221°
2026-04-22 08:22 51.30057 1.21631 32321 ft 460 kts 221°
2026-04-22 08:23 51.24894 1.15591 32313 ft 460 kts 221°
2026-04-22 08:23 51.19743 1.09533 32311 ft 460 kts 221°
2026-04-22 08:24 51.14596 1.03489 32306 ft 460 kts 221°
2026-04-22 08:24 51.09474 0.97508 32306 ft 459 kts 221°
2026-04-22 08:25 51.04996 0.90619 32301 ft 438 kts 247°
2026-04-22 08:25 51.03633 0.86318 32051 ft 435 kts 250°
2026-04-22 08:25 51.02327 0.82008 31220 ft 429 kts 250°
2026-04-22 08:26 51.01065 0.77756 30157 ft 422 kts 251°
2026-04-22 08:26 50.99829 0.73565 29016 ft 416 kts 251°
2026-04-22 08:26 50.98626 0.69485 28594 ft 396 kts 251°
2026-04-22 08:26 50.97494 0.65700 28197 ft 378 kts 251°
2026-04-22 08:27 50.96376 0.61984 27478 ft 369 kts 251°
2026-04-22 08:27 50.95276 0.58326 26697 ft 365 kts 251°
2026-04-22 08:27 50.94189 0.54718 25895 ft 361 kts 250°
2026-04-22 08:27 50.93109 0.51141 25197 ft 358 kts 250°
2026-04-22 08:28 50.92109 0.47561 24410 ft 351 kts 259°
2026-04-22 08:28 50.91707 0.43840 23620 ft 338 kts 275°
2026-04-22 08:28 50.91980 0.40205 22747 ft 329 kts 289°
2026-04-22 08:28 50.92595 0.36873 21910 ft 329 kts 289°
2026-04-22 08:29 50.93239 0.33391 21073 ft 329 kts 289°
2026-04-22 08:29 50.93877 0.29920 20293 ft 328 kts 289°
2026-04-22 08:29 50.94619 0.26556 19548 ft 324 kts 299°
2026-04-22 08:29 50.95829 0.23580 18825 ft 321 kts 310°
2026-04-22 08:30 50.97212 0.20789 18039 ft 321 kts 310°
2026-04-22 08:30 50.98556 0.18060 17755 ft 307 kts 310°
2026-04-22 08:30 50.99837 0.15447 17489 ft 293 kts 310°
2026-04-22 08:30 51.01065 0.12934 17111 ft 282 kts 310°
2026-04-22 08:31 51.02310 0.10634 16845 ft 275 kts 324°
2026-04-22 08:31 51.03947 0.09189 16596 ft 270 kts 340°
2026-04-22 08:31 51.07429 0.06971 16084 ft 270 kts 342°
2026-04-22 08:32 51.09056 0.05485 15830 ft 275 kts 320°
2026-04-22 08:32 51.10182 0.03020 15585 ft 279 kts 293°
2026-04-22 08:32 51.10548 -0.00006 15325 ft 282 kts 266°
2026-04-22 08:32 51.10077 -0.03000 15081 ft 281 kts 240°
2026-04-22 08:33 51.08876 -0.05387 14831 ft 276 kts 214°
2026-04-22 08:33 51.07198 -0.06742 14598 ft 268 kts 189°
2026-04-22 08:33 51.05399 -0.06910 14358 ft 260 kts 166°
2026-04-22 08:33 51.03732 -0.05977 14116 ft 252 kts 144°
2026-04-22 08:34 51.02448 -0.04170 13848 ft 245 kts 123°
2026-04-22 08:34 51.01690 -0.01793 13580 ft 241 kts 103°
2026-04-22 08:34 51.01485 0.00826 13310 ft 239 kts 91°
2026-04-22 08:34 51.01487 0.03463 13048 ft 238 kts 89°
2026-04-22 08:35 51.01544 0.06092 12786 ft 238 kts 88°
2026-04-22 08:35 51.01614 0.08704 12516 ft 236 kts 88°
2026-04-22 08:35 51.01681 0.11301 12260 ft 235 kts 87°
2026-04-22 08:35 51.02053 0.13764 12008 ft 235 kts 63°
2026-04-22 08:36 51.03149 0.15685 11893 ft 240 kts 35°
2026-04-22 08:36 51.04752 0.16508 11658 ft 250 kts
2026-04-22 08:36 51.06450 0.15856 11407 ft 260 kts 332°
2026-04-22 08:36 51.07702 0.13777 11159 ft 267 kts 296°
2026-04-22 08:37 51.08050 0.10903 10758 ft 268 kts 266°
2026-04-22 08:37 51.07965 0.07927 10517 ft 271 kts 266°
2026-04-22 08:37 51.07896 0.04927 10106 ft 273 kts 267°
2026-04-22 08:37 51.07840 0.01909 9515 ft 274 kts 267°
2026-04-22 08:38 51.07517 -0.01026 8946 ft 267 kts 239°
2026-04-22 08:38 51.06353 -0.03146 8381 ft 254 kts 204°
2026-04-22 08:38 51.04733 -0.03919 7823 ft 238 kts 172°
2026-04-22 08:38 51.03188 -0.03327 7276 ft 225 kts 144°
2026-04-22 08:39 51.02067 -0.01705 6737 ft 216 kts 119°
2026-04-22 08:39 51.01654 -0.00289 6354 ft 214 kts 104°
2026-04-22 08:39 51.01518 0.02047 5776 ft 213 kts 91°
2026-04-22 08:39 51.01544 0.04392 5211 ft 212 kts 90°
2026-04-22 08:40 51.01595 0.06744 4690 ft 215 kts 89°
2026-04-22 08:40 51.01650 0.09070 4551 ft 206 kts 89°
2026-04-22 08:40 51.01699 0.11294 4413 ft 199 kts 88°
2026-04-22 08:40 51.02339 0.13977 4359 ft 205 kts 51°
2026-04-22 08:41 51.03637 0.15199 4242 ft 243 kts 20°
2026-04-22 08:41 51.04805 0.15278 4159 ft 254 kts 354°
2026-04-22 08:41 51.06304 0.13998 4029 ft 256 kts 315°
2026-04-22 08:41 51.07048 0.11455 3751 ft 255 kts 274°
2026-04-22 08:42 51.06980 0.08645 3615 ft 254 kts 262°
2026-04-22 08:42 51.06774 0.05861 3493 ft 254 kts 262°
2026-04-22 08:42 51.06540 0.03082 3369 ft 253 kts 261°
2026-04-22 08:42 51.06309 0.00317 3230 ft 254 kts 262°
2026-04-22 08:43 51.06089 -0.02463 3083 ft 253 kts 262°
2026-04-22 08:43 51.05811 -0.06135 2977 ft 253 kts 262°
2026-04-22 08:43 51.05675 -0.08017 2982 ft 254 kts 262°
2026-04-22 08:43 51.05478 -0.10780 2982 ft 255 kts 262°
2026-04-22 08:44 51.05280 -0.13584 2979 ft 255 kts 262°
2026-04-22 08:44 51.05083 -0.16384 2980 ft 254 kts 262°
2026-04-22 08:44 51.04885 -0.19176 2981 ft 254 kts 262°
2026-04-22 08:44 51.04686 -0.21970 2983 ft 255 kts 262°
2026-04-22 08:45 51.04490 -0.24765 2983 ft 255 kts 262°
2026-04-22 08:45 51.04289 -0.27574 2987 ft 256 kts 262°
2026-04-22 08:45 51.04089 -0.30348 2981 ft 255 kts 262°
2026-04-22 08:45 51.03889 -0.33179 2976 ft 255 kts 262°
2026-04-22 08:46 51.03695 -0.35988 2979 ft 256 kts 264°
2026-04-22 08:46 51.03744 -0.38776 2987 ft 256 kts 274°
2026-04-22 08:46 51.03882 -0.41592 2976 ft 254 kts 274°
2026-04-22 08:46 51.04012 -0.44334 2977 ft 245 kts 274°
2026-04-22 08:47 51.04195 -0.46972 2971 ft 236 kts 287°
2026-04-22 08:47 51.04995 -0.49103 3000 ft 219 kts 323°
2026-04-22 08:47 51.06219 -0.50260 2990 ft 195 kts 349°
2026-04-22 08:47 51.07453 -0.50605 2969 ft 171 kts 10°
2026-04-22 08:48 51.08549 -0.50363 2965 ft 150 kts 27°
2026-04-22 08:48 51.09461 -0.49714 2975 ft 139 kts 42°
2026-04-22 08:48 51.10177 -0.48783 2980 ft 132 kts 56°
2026-04-22 08:48 51.10701 -0.47622 3016 ft 128 kts 68°
2026-04-22 08:49 51.11012 -0.46294 2990 ft 129 kts 81°
2026-04-22 08:49 51.11210 -0.44880 2982 ft 132 kts 81°
2026-04-22 08:49 51.11409 -0.43458 2980 ft 133 kts 80°
2026-04-22 08:49 51.11611 -0.42020 2907 ft 133 kts 81°
2026-04-22 08:50 51.11813 -0.40586 2767 ft 132 kts 81°
2026-04-22 08:50 51.12012 -0.39162 2608 ft 132 kts 81°
2026-04-22 08:50 51.12212 -0.37738 2434 ft 131 kts 81°
2026-04-22 08:50 51.12411 -0.36311 2255 ft 132 kts 81°
2026-04-22 08:51 51.12607 -0.34912 2078 ft 131 kts 79°
2026-04-22 08:51 51.12804 -0.33498 1895 ft 130 kts 80°
2026-04-22 08:51 51.12999 -0.32099 1736 ft 130 kts 80°
2026-04-22 08:51 51.13195 -0.30696 1538 ft 130 kts 79°
2026-04-22 08:52 51.13390 -0.29299 1358 ft 129 kts 79°
2026-04-22 08:52 51.13582 -0.27919 1167 ft 128 kts 79°
2026-04-22 08:52 51.13773 -0.26533 1019 ft 130 kts 79°
2026-04-22 08:52 51.13964 -0.25120 835 ft 132 kts 77°
2026-04-22 08:53 51.14151 -0.23718 685 ft 132 kts 78°
2026-04-22 08:53 51.14356 -0.22306 467 ft 133 kts 76°
2026-04-22 08:53 51.14556 -0.20889 266 ft 130 kts 76°
2026-04-22 08:53 51.14748 -0.19536 215 ft 112 kts 76°
2026-04-22 08:54 51.14886 -0.18535 216 ft 71 kts 78°
2026-04-22 08:54 51.14960 -0.17985 212 ft 20 kts 77°
2026-04-22 08:54 51.14987 -0.17793 219 ft 17 kts 76°
2026-04-22 08:54 51.15055 -0.17747 217 ft 14 kts 351°
2026-04-22 08:55 51.15097 -0.17757 206 ft 1 kts 351°
2026-04-22 08:55 51.15110 -0.17760 206 ft 4 kts 352°
2026-04-22 08:55 51.15154 -0.17770 210 ft 7 kts 352°
2026-04-22 08:55 51.15197 -0.17778 205 ft 6 kts 356°
2026-04-22 08:56 51.15233 -0.17778 205 ft 5 kts
2026-04-22 08:56 51.15261 -0.17747 210 ft 6 kts 65°
2026-04-22 08:56 51.15273 -0.17671 209 ft 8 kts 76°
2026-04-22 08:56 51.15289 -0.17570 215 ft 10 kts 76°
2026-04-22 08:57 51.15300 -0.17450 211 ft 11 kts 83°
2026-04-22 08:57 51.15350 -0.17373 209 ft 13 kts 350°
2026-04-22 08:57 51.15443 -0.17404 205 ft 15 kts 347°
2026-04-22 08:57 51.15553 -0.17443 205 ft 17 kts 347°
2026-04-22 08:58 51.15604 -0.17459 207 ft 0 kts
2026-04-22 08:58 51.15603 -0.17418 207 ft 7 kts 123°
2026-04-22 08:58 51.15601 -0.17333 207 ft 9 kts 78°
2026-04-22 08:58 51.15617 -0.17227 210 ft 11 kts 76°
2026-04-22 08:59 51.15636 -0.17100 210 ft 13 kts 76°
2026-04-22 08:59 51.15656 -0.16989 209 ft 10 kts 77°
2026-04-22 08:59 51.15687 -0.16919 211 ft 7 kts 36°
2026-04-22 08:59 51.15732 -0.16874 212 ft 4 kts 30°
2026-04-22 09:00 51.15743 -0.16865 211 ft 0 kts 30°